Starlink 4557

operational
NORAD ID: 53432 Int'l Des: 2022-097 Owner: SPXS Country: US Constellation: starlink
LEOCIRCULAR

About Starlink 4557

Description loading...

Live Position

Loading 3D Globe...

Upcoming Passes

Altitude History

Altitude vs Time

uPlot chart will show altitude changes over time

Two-Line Element Set

1 53432U 22097AW 26062.17483331 .00000457 00000-0 46825-4 0 9998
2 53432 53.2164 133.1296 0001376 93.2737 266.8412 15.08836338197802
Epoch: Mar 3, 2026 • Age: 15 hours

Current Status

Altitude 556.2 km
Velocity 7.58 km/s
Sub-Earth Point -46.07°S, 21.88°W
Launch Date Aug 10, 2022
Age 3.5 years
Type internet

Technical Details

Classification Payload
Mass 297.00 kg
Dry Mass 275.00 kg
Total Mass 297.00 kg
Length 0.20 m
Diameter 2.80 m
Span 9.00 m
Shape Box + pan
Manufacturer SPXS
Bus Type Starlink
Phase Status In Orbit
Owner/State SPXS/US

Large Constellations

Loading constellations...